This is the latest recevied weather packets stored in our database for station/object K6MBY. If no packets are shown the sender has not sent any weather packets the latest 10 day(s).
| Time | Temp. | Humidity | Pressure | Rain* | Wind** | Luminosity | Snow |
|---|---|---|---|---|---|---|---|
| 1777802183 | 17.22° C | 54% | 1018.1 hPa | 0 mm | - | 0 W/m² | - |
| 1777801882 | 17.78° C | 52% | 1018.2 hPa | 0 mm | - | 0 W/m² | - |
| 1777801578 | 17.22° C | 52% | 1018.1 hPa | 0 mm | - | 0 W/m² | - |
| 1777801275 | 17.22° C | 52% | 1018.2 hPa | 0 mm | - | 0 W/m² | - |
| 1777800971 | 17.78° C | 51% | 1018.1 hPa | 0 mm | - | 0 W/m² | - |
| 1777800669 | 17.78° C | 51% | 1018 hPa | 0 mm | - | 0 W/m² | - |
| 1777800364 | 17.78° C | 51% | 1017.8 hPa | 0 mm | - | 0 W/m² | - |
| 1777800061 | 18.33° C | 49% | 1018 hPa | 0 mm | - | 0 W/m² | - |
| 1777799756 | 17.78° C | 52% | 1018.1 hPa | 0 mm | - | 0 W/m² | - |
| 1777799454 | 17.78° C | 52% | 1018.2 hPa | 0 mm | - | 0 W/m² | - |
| 1777799149 | 17.22° C | 53% | 1018.1 hPa | 0 mm | - | 0 W/m² | - |
| 1777798845 | 17.22° C | 54% | 1018 hPa | 0 mm | - | 0 W/m² | - |
| 1777798541 | 17.22° C | 53% | 1018.2 hPa | 0 mm | - | 0 W/m² | - |
| 1777798239 | 16.67° C | 54% | 1018 hPa | 0 mm | - | 0 W/m² | - |
| 1777797935 | 17.22° C | 54% | 1018.2 hPa | 0 mm | - | 0 W/m² | - |
| 1777797633 | 17.22° C | 53% | 1018.3 hPa | 0 mm | - | 0 W/m² | - |
| 1777797330 | 17.22° C | 54% | 1018 hPa | 0 mm | - | 0 W/m² | - |
| 1777797027 | 17.22° C | 53% | 1018.1 hPa | 0 mm | - | 0 W/m² | - |
| 1777796724 | 17.22° C | 53% | 1018.1 hPa | 0 mm | - | 0 W/m² | - |
| 1777796421 | 17.22° C | 54% | 1018 hPa | 0 mm | - | 0 W/m² | - |
| 1777796115 | 17.22° C | 54% | 1018 hPa | 0 mm | - | 0 W/m² | - |
| 1777795813 | 17.22° C | 55% | 1018.2 hPa | 0 mm | - | 0 W/m² | - |
| 1777795509 | 17.22° C | 55% | 1018.2 hPa | 0 mm | - | 0 W/m² | - |
| 1777795206 | 17.22° C | 54% | 1018 hPa | 0 mm | - | 0 W/m² | - |
| 1777794902 | 17.22° C | 56% | 1018 hPa | 0 mm | - | 0 W/m² | - |
* Rain latest hour (hover to see other rain measurements)
** Current wind speed in m/s (hover to see current wind gust speed)